Regional Weather Roundup
Issued by NWS Sioux Falls, SD

Home | Current Version | Previous Version | Text Only | Print | Product List | Glossary Off
Versions: 1 2 3 4 5 6 7 8 9 10 11 12 13 14 15 16 17 18 19 20 21 22 23 24 25 26 27 28 29 30 31 32 33 34 35 36 37 38 39 40 41 42 43 44 45 46 47 48 49 50

000
ASUS43 KFSD 200110
RWRFSD

WEATHER ROUNDUP FOR SE SOUTH DAKOTA/SW MINNESOTA/NW IOWA
NATIONAL WEATHER SERVICE SIOUX FALLS SD
800 PM CDT FRI SEP 19 2014

NOTE: "FAIR" INDICATES FEW OR NO CLOUDS BELOW 12,000 FEET WITH NO
SIGNIFICANT WEATHER AND OR OBSTRUCTIONS TO VISIBILITY.


SDZ038>040-050-052>070-200200-
SOUTHEAST SOUTH DAKOTA

CITY           SKY/WX    TMP DP  RH WIND       PRES   REMARKS
CHAMBERLAIN    PTCLDY    77  56  48 N7        29.75R
HURON          MOCLDY    72  59  63 NW5       29.70R
MADISON        FAIR      73  68  83 W7        29.73R
MITCHELL       LGT RAIN  78  66  66 SW5       29.71R
SIOUX FALLS    PTCLDY    76  65  68 W5        29.71R
WINNER         FAIR      78  56  46 W5        29.78R
YANKTON        PTCLDY    79  66  65 CALM      29.70S
$$

MNZ071-072-080-081-089-090-097-098-200200-
SOUTHWEST MINNESOTA

CITY           SKY/WX    TMP DP  RH WIND       PRES   REMARKS
FAIRMONT       MOCLDY    77  57  50 S15       29.72R
JACKSON        PTCLDY    77  64  65 S8        29.72S
LUVERNE        PTCLDY    75  64  69 SW3       29.72R
MARSHALL       MOCLDY    72  66  83 W8        29.69S
MONTEVIDEO     MOCLDY    73  66  78 CALM      29.68R
PIPESTONE      PTCLDY    75  66  73 CALM      29.73S
REDWOOD FALLS  LGT RAIN  77  67  71 W6        29.68R
TRACY          PTCLDY    76  68  75 CALM      29.72R
WINDOM         PTCLDY    77  66  69 SW3       29.71R
WORTHINGTON    PTCLDY    77  64  65 SW8       29.73R
$$

IAZ001>003-012>014-020>022-031-032-NEZ013-014-SDZ071-200200-
NORTHWEST IOWA

CITY           SKY/WX    TMP DP  RH WIND       PRES   REMARKS
CHEROKEE       CLEAR     75  70  84 S10       29.75S
DENISON        CLEAR     75  70  83 S12G18    29.77S
ESTHERVILLE    PTCLDY    76  67  73 S14       29.73R
LE MARS        PTCLDY    79  68  69 S9        29.73S
ORANGE CITY    PTCLDY    79  66  65 S8        29.74R
SHELDON        PTCLDY    79  68  69 S10       29.72R
SIOUX CITY     CLEAR     79  67  66 S6        29.74S
SPENCER        PTCLDY    77  68  73 S13       29.73F
STORM LAKE     CLEAR     73  72  94 S8G15     29.78S
$$

ABBREVIATIONS USED IN REMARKS
   TC - TEMPERATURE IN CELSIUS
  WCI - WIND CHILL INDEX
   HX - HEAT INDEX
  VSB - VISIBILITY




USA.gov is the U.S. government's official web portal to all federal, state and local government web resources and services.